星链-30302 (STARLINK-30302 )

导读 | 星芒AI

STARLINK-30302 是 SpaceX Starlink 项目中的一颗低轨通信卫星,属于第三代星链卫星群。该卫星采用先进的推进系统和激光通信技术,旨在提升全球互联网覆盖和传输速度。它运行在约 550 公里的轨道高度,支持高速、低延迟的宽带服务,主要服务于偏远和网络基础设施薄弱的地区。作为 Starlink 计划的重要组成部分,STARLINK-30302 有助于构建更稳定、高效的全球卫星互联网网络。

基本信息
目录编号:
57664
目录名称:
STARLINK-30302
国际标识:
2023-124B
轨道中心:
EARTH
卫星名称:
星链-30302
卫星全名:
星链-30302 (STARLINK-30302 )
卫星状态:
已陨落 最后检测时间 2025-02-27
发射日期:
2023-08-22 UTC
国别 :
美国 (US)
星等 :
--
轨道信息
数据来源 国际轨道数据
星历时间: 2025-02-27T19:36:01+0800
轨道信息已过期245天
半长轴: 6554.003km
偏心率: 0.0005828
轨道倾角: 53.126°
近地点辐角 4.321°
升交点赤经 134.313°
平近点角 95.528°
近地点: 172.048km
远地点: 179.688km
周期: 88.007分钟
每日圈数: 16.362244
详细信息
固有亮度:
5
最大亮度:
0.3
卫星平台:
Starlink v2.0 mini
覆盖范围:
全球
运营商:
太空探索技术公司
运营商所在国:
美国
制造商(研发单位):
太空探索技术公司
制造商所在国:
美国
使用方式:
暂无
卫星简介
星链(Starlink)计划是由太空探索技术公司(SpaceX)提出的一个巨型低轨卫星互联网星座项目,计划在2019年至2024年间在太空搭建由约1.2万颗卫星组成的“星链”网络,其中1584颗将部署在地球上空550千米处的近地轨道,并从2020年开始工作。该卫星仍在工作。